Theta_e
318 319 321 323 321 322 323 322 325 328 328 328 331 328 321 320 319 315 314 313 313 313 311 312 311 311 312 312 313 313 312 314 316 316 321 322 313 312 311 309 309 308 308 307 307 307 306 306 305 305 305 305 305 305 305 305 305 306 306 307 308 308 308 308 307 306 305 305 305 305 305 304 304 304 304 304 304 303 303 303 305 308 310 315 318 318 318 317 317 317 317 317 318 318 319 318 313
318 319 321 322 322 322 323 323 327 330 329 331 332 325 320 320 317 315 316 315 314 312 311 311 311 311 312 312 311 310 311 311 312 314 318 318 313 312 310 309 309 308 307 306 307 306 306 306 305 305 305 305 305 305 305 305 306 306 307 308 308 308 308 308 307 305 305 305 305 305 305 305 304 304 304 304 304 303 303 303 306 309 311 316 318 317 316 317 318 318 318 318 319 320 319 319 316
318 320 321 322 322 322 323 324 327 327 324 330 336 328 319 318 319 319 315 313 313 311 310 310 310 311 310 311 310 310 312 310 311 312 312 313 312 311 310 309 308 307 307 306 306 306 306 305 305 305 305 305 305 305 306 305 306 307 307 308 308 308 308 308 307 306 305 306 305 305 305 305 305 304 304 304 304 303 303 304 307 310 313 317 316 316 316 317 317 317 319 319 319 319 319 319 319
318 321 321 323 323 324 326 327 332 329 324 327 329 326 321 321 323 317 312 311 311 310 310 309 309 309 309 311 311 311 312 311 311 311 311 311 310 310 310 309 308 307 307 306 306 305 306 305 305 305 305 305 305 306 306 306 306 307 308 308 308 308 308 308 307 306 306 306 306 305 305 305 305 304 304 304 304 304 303 304 308 311 314 317 316 315 317 317 317 317 318 318 318 318 318 318 318
318 321 322 323 324 324 326 326 329 326 327 328 321 322 324 321 321 314 310 311 311 310 310 310 311 309 309 311 312 312 312 312 311 311 312 311 310 310 310 309 308 307 307 306 306 305 305 305 305 305 305 305 306 306 306 306 307 308 308 308 308 308 308 308 306 306 306 306 306 306 305 305 305 304 304 304 304 304 304 304 309 311 311 316 316 316 318 319 319 317 315 315 315 315 315 315 314
318 321 322 323 322 320 324 325 327 326 328 328 321 325 323 317 315 311 310 311 310 310 311 311 311 311 310 311 312 312 312 311 312 312 311 311 310 309 309 308 308 307 307 306 306 305 305 305 305 305 306 305 306 306 306 306 307 308 308 308 308 308 308 308 306 306 306 306 306 306 305 306 305 305 305 304 305 304 304 305 310 310 309 315 317 317 319 320 319 315 313 313 312 313 313 314 314
319 321 321 322 321 320 326 327 329 330 326 322 322 325 320 314 311 311 311 311 311 311 312 311 311 311 311 311 311 312 311 312 312 312 312 311 310 309 309 308 308 307 306 306 306 305 305 305 305 305 306 306 306 306 306 307 308 308 308 309 308 308 308 308 307 306 307 307 306 306 306 306 305 305 305 305 305 304 304 306 311 309 309 315 317 318 319 320 318 312 311 312 313 314 314 315 315
319 321 321 323 325 322 324 325 326 327 323 319 318 320 317 313 310 311 313 311 312 311 311 311 310 311 311 310 311 311 310 311 311 312 311 310 310 309 309 308 308 307 306 306 306 305 305 305 305 306 306 306 306 306 306 307 308 308 308 308 308 308 308 308 306 306 307 307 307 307 307 306 305 305 305 306 305 304 304 308 311 309 310 316 318 318 319 319 316 311 312 313 314 316 315 316 316
320 321 320 324 326 324 325 326 325 323 322 320 316 315 315 313 311 312 313 312 312 311 311 311 310 310 310 310 311 311 310 310 311 311 311 310 310 309 309 308 308 307 306 306 305 305 305 305 305 306 306 306 306 306 306 307 308 308 308 308 308 308 308 308 306 306 307 307 307 307 307 306 306 306 306 306 306 304 304 309 311 309 312 317 318 318 319 319 315 312 314 314 315 316 315 316 317
321 322 320 323 324 323 327 326 326 325 321 319 315 315 314 312 311 311 312 313 312 311 311 310 310 309 309 310 311 311 311 311 310 311 310 310 309 309 308 308 308 307 306 306 305 305 306 306 306 306 306 306 306 306 307 308 308 308 309 308 308 308 308 308 306 306 307 307 307 307 307 307 307 306 306 306 305 304 305 310 310 310 312 315 318 319 319 319 316 313 314 315 316 316 315 316 316
321 320 319 322 323 323 326 327 330 331 322 315 314 315 314 313 312 311 311 311 312 311 310 310 309 308 308 309 311 311 311 311 311 311 310 309 309 308 308 308 308 307 306 306 306 306 306 306 306 306 306 306 306 306 307 307 308 308 308 308 308 308 308 308 307 306 306 307 307 307 307 307 307 306 306 306 306 305 306 310 310 311 312 313 317 319 318 318 317 314 314 315 316 316 315 316 316
320 321 323 325 327 327 327 328 330 331 324 318 316 315 313 313 312 312 311 311 311 310 310 310 309 309 308 309 310 311 311 311 311 311 310 310 309 308 308 308 307 307 306 306 306 306 306 306 306 306 306 306 306 307 308 308 308 308 308 308 308 308 308 308 307 307 307 307 307 308 307 307 307 306 307 306 306 305 307 311 310 312 311 312 317 318 318 319 318 315 314 315 315 315 315 316 316
320 323 326 327 329 331 326 326 328 326 325 321 315 314 314 313 313 313 311 310 309 309 311 310 309 309 309 309 310 310 310 310 311 310 311 310 309 308 308 308 307 307 306 306 307 307 306 306 306 306 306 306 306 307 308 308 308 308 308 308 308 308 308 308 307 307 306 307 307 307 307 307 307 307 307 306 306 304 307 312 311 312 311 313 318 318 318 319 318 314 313 314 314 315 315 315 316
320 321 324 326 327 328 322 324 326 322 326 322 312 313 314 313 313 313 312 311 310 310 312 310 310 310 309 310 310 311 311 310 310 310 310 310 309 308 308 307 307 306 306 306 307 307 306 306 306 306 306 306 306 307 308 308 309 308 308 308 308 308 308 308 308 307 307 307 307 307 307 307 307 307 307 306 306 304 307 312 311 311 311 314 318 318 318 318 318 315 312 312 313 314 315 315 316
319 319 323 325 325 325 322 324 323 320 325 320 311 312 312 313 313 312 312 312 312 311 311 311 309 310 309 310 311 311 311 311 311 311 310 309 308 307 307 307 306 306 306 306 307 307 307 306 306 306 306 306 306 307 308 308 309 308 308 308 308 307 308 308 308 307 307 307 307 307 307 307 307 307 307 306 306 304 308 312 311 311 311 314 318 318 316 315 317 317 314 313 313 314 314 315 315
319 319 322 324 324 325 323 322 320 320 323 315 309 311 311 312 312 312 312 312 312 311 311 311 310 310 309 310 310 310 311 311 310 310 310 309 308 307 307 306 306 306 305 306 307 307 307 307 306 306 306 306 307 308 308 308 308 308 308 308 308 307 307 308 308 307 307 307 307 307 307 308 307 307 307 306 306 304 307 312 311 311 312 313 316 318 314 312 315 316 315 314 314 314 314 315 315
317 318 322 324 325 324 324 323 318 318 321 313 308 310 311 312 311 311 312 311 311 311 310 311 310 310 309 309 310 310 310 311 311 310 309 309 308 306 307 307 306 306 306 307 307 307 307 307 307 306 306 306 307 307 308 308 308 308 308 308 308 307 307 307 307 307 307 307 307 307 307 308 307 307 307 307 307 305 307 312 312 311 313 313 315 318 314 311 313 314 315 314 313 314 315 316 315
317 321 323 323 327 325 324 322 315 314 316 312 308 309 311 312 311 310 311 310 310 310 310 311 310 310 310 310 309 309 310 310 311 310 310 309 308 307 307 307 307 306 306 306 307 307 308 307 307 307 307 307 307 307 308 308 308 308 308 308 308 307 307 307 307 307 307 307 307 308 308 308 307 307 307 307 307 305 306 311 312 311 313 314 315 318 313 310 313 313 315 315 315 316 317 317 315
318 323 322 323 331 324 315 314 311 311 313 311 309 309 309 311 310 309 311 310 308 309 310 310 310 310 310 310 309 309 309 309 310 310 310 310 309 308 308 308 307 307 306 306 307 308 309 307 307 307 307 307 307 307 308 308 308 308 308 308 307 307 307 307 307 307 307 307 307 308 308 307 307 307 307 307 307 306 305 310 313 311 313 314 315 318 313 310 313 313 317 318 319 319 318 318 315
316 318 320 327 326 317 310 310 310 310 311 310 310 309 308 309 309 308 309 309 308 308 309 308 309 310 310 310 310 309 309 309 309 310 310 310 310 309 309 308 308 307 307 306 307 309 310 308 307 308 308 307 307 307 307 308 308 308 308 307 307 307 307 307 307 307 307 307 307 308 308 307 307 307 307 307 307 306 304 308 313 311 312 315 316 317 312 310 314 315 319 320 320 320 318 317 315
316 316 323 325 315 313 312 310 311 310 310 309 309 309 308 309 309 308 308 309 310 308 308 309 309 310 311 310 310 309 309 309 309 309 309 309 309 309 309 308 308 307 306 306 307 309 310 309 308 308 308 308 307 307 308 308 308 308 308 307 308 307 307 307 307 307 307 307 308 308 308 307 308 307 307 307 307 306 304 306 311 312 312 315 316 317 313 311 316 319 320 321 321 320 318 316 315
315 315 318 317 310 312 314 310 311 310 309 309 308 309 309 309 309 309 308 309 310 309 310 311 310 311 310 310 310 309 309 309 309 308 308 309 309 309 308 308 307 307 306 307 307 309 310 309 309 308 308 308 307 308 307 308 308 308 308 308 308 307 308 307 307 307 307 308 308 308 308 308 308 307 307 307 307 307 305 305 309 312 312 315 316 317 315 312 317 320 320 321 322 322 320 318 317
315 314 312 312 311 312 312 311 311 310 309 308 308 309 308 308 309 309 308 308 310 309 310 310 310 311 310 310 309 309 309 309 309 309 309 309 308 309 308 308 307 307 306 307 307 308 310 310 309 308 308 308 307 308 308 308 308 308 308 308 308 308 308 307 307 307 307 308 308 307 308 308 308 308 307 307 308 307 306 305 307 311 313 314 315 317 317 313 316 320 320 321 321 322 322 320 320
313 315 311 311 311 310 311 311 311 311 310 309 308 308 307 308 309 308 308 309 310 310 310 310 310 310 310 310 310 309 310 310 310 310 310 309 309 309 309 308 308 307 307 307 307 308 310 310 309 308 308 307 307 308 308 308 308 308 308 308 308 308 307 307 307 307 307 308 307 308 308 308 308 308 308 307 308 307 307 306 305 309 312 314 314 316 318 315 314 318 319 320 320 321 322 321 322
311 313 311 310 311 311 311 311 310 310 309 309 307 306 307 308 308 307 308 310 311 310 310 309 310 310 310 310 310 310 310 310 310 310 310 310 310 309 308 308 308 307 307 307 307 308 310 310 309 308 308 307 307 308 308 308 308 308 308 308 308 307 307 307 307 307 307 307 307 308 308 309 308 308 308 308 308 307 307 307 306 306 310 313 314 315 318 317 314 316 318 319 320 320 321 322 323
311 311 310 309 310 311 311 310 310 309 309 308 308 307 307 308 307 307 310 311 311 311 310 310 309 309 310 310 310 310 310 310 310 310 310 310 309 309 309 308 307 307 307 307 307 308 310 309 309 309 308 307 307 308 308 308 308 308 308 307 307 307 307 307 307 307 307 307 308 308 308 309 309 308 308 308 308 307 307 307 306 305 307 311 313 314 317 318 316 317 318 318 319 320 321 322 322
310 309 309 309 309 310 309 309 310 309 308 308 309 310 308 307 308 309 311 311 310 311 310 310 310 309 309 310 310 310 310 310 310 310 310 310 309 309 309 308 307 307 307 307 307 308 309 310 309 308 308 308 308 308 308 308 308 308 308 308 308 307 307 307 307 307 307 307 308 308 309 309 309 309 309 309 308 307 307 307 307 306 305 307 312 314 316 318 318 318 318 317 318 319 320 320 321
308 308 308 308 308 308 308 309 308 308 308 307 308 309 307 307 308 310 310 310 310 310 310 310 310 310 310 310 310 310 310 310 309 309 309 309 309 309 309 308 307 308 307 307 308 308 310 310 309 308 308 308 308 308 308 308 308 308 308 308 308 307 307 307 307 307 307 307 308 308 308 309 309 309 309 309 308 308 307 307 307 307 305 305 308 311 315 317 318 318 318 316 316 318 320 320 321
307 307 310 310 308 307 307 308 308 307 308 307 307 308 310 310 309 312 311 310 310 309 309 310 310 311 310 311 310 310 310 310 309 309 310 309 309 309 309 308 308 308 308 308 307 308 310 310 309 308 308 308 308 308 308 308 308 308 308 308 307 307 307 307 307 307 307 307 308 308 308 309 309 309 309 309 309 308 308 308 307 307 307 305 305 307 312 315 317 317 317 316 316 318 319 320 320
308 307 307 310 310 310 307 306 307 307 308 308 307 309 313 313 308 310 312 310 309 309 310 310 310 311 310 311 311 311 311 310 310 310 311 310 309 309 308 308 308 308 308 307 307 308 310 310 309 308 308 309 308 308 308 308 308 308 308 308 307 307 307 307 307 307 307 307 308 308 308 308 309 309 309 309 308 308 308 308 308 307 307 306 305 304 307 311 314 315 315 315 316 317 318 319 319
309 307 307 310 309 313 310 304 306 308 308 307 307 309 311 311 308 309 310 310 311 310 311 312 311 311 311 311 311 311 311 311 311 311 311 311 309 309 308 308 307 308 308 307 307 308 309 310 309 308 308 308 308 308 308 308 308 308 308 308 307 307 307 307 307 307 307 307 307 308 308 308 308 309 309 308 308 308 308 308 308 307 307 307 306 305 305 306 309 311 313 314 315 317 318 319 318
313 308 312 315 307 313 315 305 305 308 308 306 307 310 310 310 310 310 310 311 312 311 312 314 313 313 313 313 312 312 313 312 311 311 311 311 310 310 309 308 308 307 308 308 307 307 309 310 309 309 308 308 308 308 308 308 308 308 308 307 307 307 307 307 307 307 307 307 308 308 308 308 308 308 308 308 308 307 308 307 307 307 307 307 307 306 306 305 305 307 309 311 314 317 318 318 318
321 310 315 320 310 311 315 307 304 307 308 307 308 311 311 312 311 310 311 311 311 311 312 313 313 314 314 314 314 313 314 313 312 312 312 311 310 310 309 309 308 308 308 308 307 307 309 310 309 309 308 308 308 308 308 308 308 308 307 307 307 307 307 307 307 307 307 307 308 308 308 308 308 308 308 307 308 307 307 307 307 307 307 307 307 307 307 306 305 305 306 308 311 315 317 317 317
321 312 312 318 314 311 313 311 307 306 309 309 309 309 309 311 309 308 310 310 309 309 310 311 311 312 313 314 314 313 314 313 314 314 313 313 312 311 310 309 308 308 308 308 307 307 308 310 309 309 309 308 308 308 308 308 308 307 307 307 307 307 307 307 307 307 307 307 308 308 308 308 307 307 307 307 307 307 307 307 307 307 307 307 307 307 307 307 306 305 305 305 307 312 315 315 316
318 314 312 316 317 312 312 312 309 308 311 310 310 310 308 309 308 307 309 309 309 309 310 311 311 311 312 312 312 313 313 313 314 315 314 314 313 312 310 309 308 308 308 308 307 306 308 310 310 309 308 308 308 307 307 307 307 307 307 307 307 307 307 307 307 307 308 308 308 308 307 307 307 307 307 307 307 307 307 307 307 307 307 306 306 307 307 307 307 306 306 305 305 310 313 313 315
317 317 315 317 317 313 313 313 310 308 311 312 311 311 310 310 310 309 310 311 310 310 311 311 310 311 311 311 312 312 312 313 315 315 314 314 313 312 311 309 309 308 308 308 307 306 308 309 309 309 308 308 308 307 307 307 307 307 307 307 307 307 307 307 307 307 308 308 308 307 307 307 307 307 307 307 307 307 307 307 307 306 306 306 306 306 307 307 307 306 306 306 305 308 312 313 313
313 314 314 315 314 312 313 315 312 307 312 318 315 312 311 311 311 310 309 311 310 309 309 309 310 311 311 312 312 313 313 314 315 314 314 313 313 312 311 310 309 308 308 308 307 307 309 310 309 309 309 308 308 308 308 308 308 308 307 307 307 307 307 307 307 307 308 308 308 307 307 307 307 307 307 307 308 307 307 307 307 306 306 306 306 306 306 306 307 307 307 306 305 306 310 312 312
313 313 314 314 313 313 313 315 313 308 312 319 317 314 313 311 312 312 311 311 311 309 309 309 311 312 312 312 313 314 314 313 314 314 314 313 312 312 311 310 309 309 308 308 308 307 308 309 309 309 309 308 308 308 308 308 308 308 308 308 307 307 307 307 306 307 308 308 307 307 307 307 307 307 307 307 308 308 308 308 307 306 306 306 306 305 305 305 306 306 306 306 306 306 308 311 311
314 314 314 312 313 316 314 315 316 312 313 319 319 315 313 313 312 312 311 311 311 311 311 311 312 313 314 314 314 314 314 314 314 313 314 313 312 312 310 310 310 309 308 308 308 307 307 309 309 309 309 308 308 308 307 307 308 307 307 307 306 307 307 306 307 307 307 308 307 307 307 306 306 307 307 307 308 308 308 308 307 307 306 306 306 306 305 305 305 305 306 306 306 306 308 310 310
316 313 312 314 315 316 316 318 319 316 312 315 318 314 312 313 315 318 313 308 311 312 312 313 313 313 314 315 315 315 315 314 314 313 313 313 312 311 310 310 309 308 308 308 308 307 307 308 309 309 309 309 308 308 307 307 307 307 306 306 306 306 306 306 307 307 308 308 307 307 307 307 307 307 307 308 308 308 308 308 308 307 306 306 306 306 306 305 305 305 305 305 305 306 307 309 310
324 319 313 318 319 315 317 320 319 318 316 314 315 316 319 322 326 328 317 310 311 311 311 313 313 314 315 316 316 316 316 315 314 314 313 313 312 311 311 310 310 309 308 309 308 308 307 307 309 309 309 308 308 308 307 307 307 306 306 306 306 306 306 306 307 307 308 308 307 307 307 307 307 307 308 308 308 308 308 308 308 308 307 306 306 306 306 306 305 305 304 305 305 305 305 307 309
326 322 315 318 320 317 319 321 318 321 324 316 314 318 325 329 326 322 318 318 317 312 311 313 313 316 315 316 318 316 317 316 315 314 313 313 312 311 311 310 310 310 310 309 308 308 307 307 308 309 309 308 308 307 307 307 307 307 307 307 307 307 307 307 307 308 308 308 307 307 307 307 307 308 308 308 309 309 309 309 308 308 308 307 307 307 306 306 306 305 305 304 305 304 305 305 306
319 316 315 318 318 317 319 319 316 321 323 315 313 319 322 321 317 318 321 321 319 316 319 317 313 317 317 316 318 317 317 317 315 314 313 312 312 311 311 310 310 310 310 310 309 308 307 307 308 309 309 308 308 307 307 307 307 307 307 307 308 308 308 308 308 308 308 307 307 307 307 307 307 308 308 309 309 309 309 309 309 308 308 308 307 307 307 307 307 306 305 305 304 304 304 305 305
318 313 314 317 316 316 317 315 315 319 321 317 317 318 319 319 316 319 320 318 321 325 329 327 317 315 318 317 317 317 316 316 315 315 313 312 311 311 311 311 311 311 311 310 309 308 307 307 308 308 309 309 308 308 307 307 307 307 307 307 307 307 308 308 307 307 307 307 307 307 307 307 308 308 309 309 309 309 309 309 309 309 309 308 308 308 308 308 308 307 307 306 305 305 305 305 304
316 311 311 314 313 316 316 316 318 318 317 319 319 314 317 325 321 317 317 318 326 330 335 338 323 314 315 316 317 317 316 315 315 315 314 313 312 312 312 311 311 311 311 310 309 309 307 307 308 308 309 309 308 308 307 307 307 307 307 307 307 307 307 307 307 307 308 307 307 307 307 307 308 309 309 309 309 309 309 309 309 309 309 309 309 309 309 308 308 308 308 307 307 306 306 306 305
311 309 311 314 314 316 315 315 318 319 317 319 321 314 314 326 327 319 317 320 328 332 337 336 319 311 315 317 317 317 316 315 315 314 315 315 314 313 312 311 311 311 310 310 309 309 307 307 308 308 309 309 308 308 307 307 307 307 307 307 307 307 307 307 307 307 308 308 307 307 307 307 308 309 309 309 309 309 309 309 309 309 309 309 309 309 309 309 309 309 308 308 308 308 307 307 306
308 310 313 316 317 315 316 319 317 317 323 324 321 315 312 320 327 325 320 320 329 330 327 325 315 311 315 317 317 317 316 315 314 314 314 314 314 313 312 312 311 311 310 310 309 309 308 307 308 308 309 309 308 308 307 307 307 307 307 307 307 307 307 307 307 308 308 308 308 308 307 307 308 309 309 309 309 309 309 309 309 309 309 309 309 309 309 309 309 309 308 308 308 308 308 307 307
310 316 317 317 321 318 317 323 318 316 328 327 319 315 312 317 325 328 323 319 322 321 318 320 316 312 315 316 316 316 316 315 314 314 313 313 314 313 313 312 311 311 310 310 309 309 308 307 307 308 309 309 308 308 307 307 307 307 307 307 307 307 306 307 307 307 308 308 308 308 307 307 308 309 309 309 309 309 309 309 309 309 309 309 309 309 308 308 308 308 308 308 307 307 307 307 307
312 318 320 319 323 322 320 325 322 321 326 319 314 313 313 316 319 318 319 316 316 314 312 315 313 311 314 315 315 315 315 315 314 314 313 313 313 314 314 313 312 312 311 310 310 309 308 307 307 308 309 309 308 308 308 307 307 307 307 307 307 306 306 307 307 307 307 308 308 308 308 307 308 309 309 309 309 309 309 309 309 309 309 309 308 308 308 307 307 307 307 307 307 306 306 306 306
312 316 322 323 322 321 325 329 321 320 323 315 311 312 315 319 317 316 318 315 313 311 310 312 311 312 314 314 314 315 315 315 314 314 313 313 313 313 313 313 313 313 312 311 310 309 308 307 307 308 309 309 308 308 308 307 307 307 307 307 306 307 307 307 307 307 307 307 308 308 308 307 308 309 309 309 309 309 309 309 308 308 308 308 308 308 307 307 306 306 306 306 306 305 305 305 305
314 317 320 323 325 323 326 329 322 321 324 319 313 315 322 323 318 318 316 311 311 311 311 313 312 313 314 313 313 314 314 315 314 314 313 313 313 313 313 313 313 313 312 312 311 310 308 308 308 308 309 309 309 308 308 307 307 307 307 307 306 307 306 307 307 307 307 307 307 308 307 307 307 308 308 309 309 309 309 308 308 308 308 308 308 307 307 306 306 306 305 305 305 305 304 304 304
314 314 316 319 323 322 320 321 320 318 319 320 315 318 326 322 316 316 313 311 311 309 309 311 311 313 313 312 313 313 314 314 313 314 313 313 313 313 313 313 313 313 312 312 311 310 309 308 308 308 308 309 309 308 308 308 307 307 307 307 307 307 307 307 307 307 307 307 307 307 307 307 307 308 308 309 309 308 308 308 308 308 308 307 307 307 306 306 305 305 305 305 304 304 304 303 303
312 313 318 317 312 314 317 316 314 312 314 319 316 318 322 317 316 319 319 321 320 316 314 309 309 313 312 312 313 312 313 314 313 314 313 313 313 312 313 313 312 312 312 312 311 311 310 309 308 308 308 309 309 309 308 308 307 307 307 307 307 307 307 307 308 308 308 307 307 307 307 307 307 308 308 309 309 308 308 308 308 307 307 307 307 306 306 305 305 305 305 305 304 304 303 303 302
313 315 317 312 307 311 317 317 318 317 318 320 316 317 321 317 318 323 323 322 322 325 321 311 309 310 311 313 313 312 314 313 313 314 313 313 313 312 313 312 312 312 312 312 312 311 311 310 309 308 308 309 309 309 308 308 308 308 307 307 307 307 307 308 308 308 308 308 307 307 307 307 307 307 308 308 308 308 308 307 307 307 307 307 307 306 306 305 305 305 304 304 304 303 303 302 302
308 310 309 308 312 318 316 315 320 319 317 321 320 317 317 317 320 323 319 317 320 320 319 319 317 311 310 314 314 313 313 313 313 313 313 313 312 312 312 312 312 312 312 312 311 311 310 310 309 309 308 309 309 309 309 308 308 308 308 308 308 308 308 308 308 307 307 307 307 307 307 307 307 307 307 308 308 308 307 307 307 307 307 307 307 306 306 305 305 305 304 304 304 303 303 302 302
303 306 307 308 314 319 317 315 319 319 318 322 323 321 321 319 321 322 317 315 318 317 318 323 319 311 312 315 314 314 313 313 313 313 313 313 312 312 312 312 312 311 311 311 311 311 311 310 310 309 309 308 308 309 308 308 308 308 308 308 308 308 308 308 308 307 307 307 307 307 307 307 306 307 307 308 308 308 308 307 307 307 307 307 306 306 306 305 305 304 304 304 303 303 303 303 302
308 309 312 310 309 312 313 312 315 320 322 322 320 321 324 322 318 318 317 315 316 316 319 320 313 310 314 314 314 315 314 313 314 313 313 312 312 312 312 311 312 311 311 311 311 311 311 310 310 310 309 308 308 309 308 308 308 308 308 308 308 308 307 307 307 307 308 307 307 307 307 307 306 306 307 308 308 308 307 307 307 307 307 306 306 306 305 305 305 304 304 304 303 303 303 302 302
309 311 315 313 312 314 315 314 314 315 317 322 321 316 320 325 319 315 316 316 315 313 315 316 311 310 314 314 313 315 314 314 314 313 313 312 312 312 311 312 312 311 311 311 310 311 310 310 310 310 310 309 309 309 308 308 308 308 308 308 308 308 307 308 307 308 308 307 307 307 306 306 306 306 307 307 307 308 307 307 306 306 307 306 306 306 305 305 305 304 304 304 303 303 302 302 302
Wind_Speed
5 4 4 3 4 4 2 2 1 2 2 1 2 1 3 3 2 3 2 2 2 3 4 4 7 9 5 2 4 3 3 5 5 4 3 5 8 7 5 6 7 6 4 2 1 2 2 3 4 6 8 8 9 9 9 8 7 7 5 4 4 4 4 5 5 5 6 6 7 8 9 9 9 10 11 12 13 13 14 15 17 19 20 19 19 19 19 19 19 20 20 20 22 22 23 24 22
5 4 4 3 3 2 1 2 1 3 3 2 3 3 3 3 1 5 6 6 3 4 6 6 8 7 4 2 3 2 3 6 5 5 4 6 9 7 5 6 6 5 3 1 1 2 3 3 5 6 8 9 9 9 9 8 7 6 5 4 4 4 5 5 5 5 6 7 8 9 9 9 10 10 11 12 13 13 14 15 17 19 20 19 18 19 19 20 20 20 21 22 23 23 24 24 22
5 5 4 3 3 2 1 2 1 1 2 1 4 3 2 1 3 6 7 6 2 7 7 6 6 4 4 2 2 3 4 8 9 7 5 8 9 7 6 6 5 3 3 1 1 3 4 4 6 7 8 9 9 9 9 8 7 6 5 4 4 4 5 5 6 6 6 7 8 9 9 10 10 11 11 12 13 13 14 16 18 20 20 18 17 19 19 19 20 19 22 24 24 23 24 24 23
6 6 4 2 2 2 2 2 1 3 2 3 3 5 3 4 7 6 5 5 6 9 7 6 4 4 5 1 3 3 6 9 11 11 7 7 7 7 7 6 4 3 3 2 2 3 5 5 6 7 8 8 9 9 9 8 7 6 5 4 4 4 5 5 6 6 6 7 8 9 9 10 10 11 11 12 13 14 15 16 19 20 19 17 17 19 19 21 22 22 22 24 24 23 22 22 24
7 6 4 1 1 1 2 1 1 3 3 3 1 5 5 6 7 5 5 8 9 8 5 5 3 4 6 4 5 3 6 8 9 12 10 7 6 6 6 5 4 4 4 3 2 4 5 6 7 7 8 8 9 9 8 8 7 6 5 4 4 4 5 5 5 6 6 7 8 9 9 10 10 11 11 12 13 14 15 17 19 20 18 17 17 19 21 23 24 25 25 24 23 22 21 22 24
8 6 4 0 1 0 1 1 1 2 5 5 2 6 6 6 8 8 8 9 8 7 5 6 3 4 4 5 9 7 5 6 6 10 10 8 6 6 6 5 4 4 5 3 2 4 6 6 7 7 7 8 8 8 8 8 7 6 5 4 4 4 5 5 5 5 6 7 8 8 9 10 10 10 11 12 13 14 15 17 20 21 18 16 17 19 22 24 25 26 24 21 19 17 17 20 22
9 6 3 1 1 1 2 2 4 3 5 6 5 6 6 8 11 11 8 7 6 7 7 8 5 3 3 4 9 12 10 9 7 6 7 7 6 5 5 5 4 4 5 4 4 5 6 6 6 7 7 8 8 8 9 8 7 6 5 4 4 4 4 5 5 5 6 7 8 8 9 10 10 10 11 11 13 14 15 17 20 20 16 15 17 19 22 23 26 26 21 18 17 17 17 20 21
9 5 2 2 1 2 2 2 4 3 4 4 5 6 9 13 16 12 8 6 5 7 9 10 8 3 4 5 6 10 13 14 12 9 9 7 7 6 5 6 5 5 5 5 5 6 6 6 7 7 7 7 8 9 9 8 7 6 5 5 4 4 4 4 5 5 6 6 7 8 9 9 10 10 10 11 13 14 15 18 20 19 15 15 16 18 22 24 25 23 18 17 17 17 19 20 22
9 4 2 2 1 1 1 3 4 4 4 5 4 4 9 16 18 11 8 5 4 6 10 12 11 4 3 6 8 10 14 15 14 14 12 10 10 9 8 7 6 6 6 5 6 6 7 6 7 7 7 7 8 9 9 8 7 6 5 5 4 4 4 4 4 5 5 6 7 7 8 9 9 9 10 12 13 13 14 18 19 17 15 14 15 17 21 24 24 21 18 17 17 18 19 21 23
8 4 1 1 1 1 3 3 3 3 5 6 4 4 9 16 16 10 8 5 6 6 9 12 10 8 3 4 10 9 13 15 15 14 12 11 10 10 9 8 8 7 6 6 6 6 6 6 6 6 6 7 8 9 9 8 7 6 5 5 4 4 4 4 4 5 5 6 7 7 8 8 9 10 11 11 12 13 14 18 18 16 15 14 15 16 19 23 23 20 17 16 17 18 18 21 22
6 2 2 2 1 2 4 4 4 4 6 5 3 4 9 16 12 6 6 3 7 7 7 11 7 11 6 5 9 9 12 13 14 12 9 9 8 9 10 10 9 7 7 6 6 6 6 6 6 7 7 7 8 9 9 8 7 6 6 5 4 4 3 4 4 5 5 6 7 7 7 8 9 10 10 10 11 13 14 17 16 15 16 15 15 16 17 23 24 19 16 16 16 17 18 20 21
4 0 3 2 3 3 4 3 5 5 6 4 2 4 6 12 9 4 7 4 8 8 8 13 5 7 6 4 9 11 13 13 12 11 10 9 8 9 10 10 9 8 8 8 7 6 6 6 7 7 7 8 8 9 9 8 7 6 6 5 4 3 3 4 5 5 5 5 6 6 7 8 9 9 9 10 11 12 14 16 15 14 16 15 14 16 17 21 25 21 16 15 15 16 17 19 21
5 2 5 1 3 3 3 2 4 4 5 4 3 5 5 8 7 6 8 6 8 8 6 14 8 4 6 5 8 14 15 13 12 12 12 10 10 11 11 11 10 10 10 8 7 6 7 7 7 8 8 8 8 9 8 8 7 7 6 6 4 4 4 5 5 6 6 6 6 5 6 7 8 8 9 10 11 12 14 15 14 13 14 14 14 15 17 19 23 23 18 14 14 15 15 18 21
7 3 5 2 1 1 3 2 4 2 4 5 3 4 6 6 6 6 6 5 10 11 5 11 11 5 6 6 8 15 15 13 14 14 13 11 12 12 11 11 10 11 10 9 8 7 7 7 8 9 9 8 8 8 8 8 7 7 6 6 5 4 4 5 6 6 6 6 6 5 5 6 7 8 9 9 10 11 13 13 12 12 13 14 16 16 17 17 20 22 19 14 13 13 13 17 20
7 2 4 1 2 2 3 3 3 3 4 4 2 4 6 6 6 6 6 6 10 13 7 7 13 6 5 8 8 11 9 12 15 14 14 13 13 12 12 12 11 12 12 10 9 9 8 8 9 9 9 8 8 8 7 8 7 7 6 6 5 4 4 5 6 6 6 7 6 5 5 5 7 8 8 9 9 10 11 11 10 11 12 13 15 16 16 16 17 19 18 14 13 14 14 17 19
7 2 4 1 2 2 3 3 1 2 5 4 3 4 4 7 8 6 8 7 7 11 12 11 16 12 8 10 8 7 6 12 15 14 15 14 14 14 13 13 13 13 13 12 10 10 9 9 9 9 9 9 9 7 7 7 7 7 6 6 5 4 4 5 6 6 7 7 6 6 4 4 7 8 8 8 8 10 10 11 9 10 11 12 13 14 15 16 16 17 17 15 13 14 15 17 18
6 2 2 1 3 3 4 4 2 2 5 4 4 6 3 5 7 8 9 10 10 11 13 14 17 20 17 15 13 10 8 12 15 16 17 16 16 15 14 14 14 15 14 13 11 11 11 10 10 10 10 10 9 7 6 7 7 7 6 6 5 4 4 5 6 7 7 7 7 6 4 4 6 7 7 7 8 9 9 10 10 9 10 11 11 12 15 15 16 16 16 15 13 14 15 15 17
5 3 2 4 3 4 5 5 5 3 3 4 4 6 6 4 5 7 7 10 14 15 18 19 19 21 22 21 19 16 13 13 17 18 19 18 18 17 16 14 14 14 14 13 12 13 12 11 11 10 10 10 8 7 7 7 7 7 6 5 5 4 4 5 6 7 7 7 7 6 3 4 5 6 6 6 7 8 9 10 10 8 8 10 9 11 14 14 15 15 16 15 14 14 13 14 16
5 3 2 5 5 5 4 5 5 3 3 4 4 6 7 6 5 5 5 7 9 11 18 20 23 25 25 25 24 21 18 16 18 20 20 20 20 19 17 15 14 14 14 14 13 13 12 11 12 11 10 9 7 7 7 7 7 6 5 5 5 5 5 5 6 7 7 7 7 5 3 3 4 5 6 6 7 7 8 9 10 8 7 8 8 10 14 13 14 14 16 17 15 14 12 14 15
6 3 2 6 6 5 4 5 5 4 4 3 4 6 7 9 7 4 5 7 7 10 16 16 22 30 28 27 26 24 22 20 21 21 22 22 21 21 19 18 16 14 14 14 13 13 12 12 12 12 10 8 7 8 7 7 6 5 5 5 5 5 5 5 6 7 7 7 7 4 2 2 3 4 5 5 6 6 7 8 9 7 6 7 7 9 13 12 12 13 15 19 18 16 13 14 15
4 5 5 5 4 3 6 7 6 5 4 4 4 4 6 10 10 8 6 5 8 15 22 21 25 30 26 27 29 26 25 24 24 24 24 24 23 23 22 20 18 15 14 14 15 14 12 11 11 11 10 8 8 8 8 7 6 5 5 6 5 5 6 5 6 6 6 7 6 3 2 1 2 3 4 5 5 5 6 7 8 7 5 6 6 9 12 11 11 12 15 19 21 19 15 15 15
2 4 7 6 4 2 6 7 7 7 6 6 5 3 6 8 9 14 11 7 12 16 17 18 20 22 21 23 27 28 28 27 28 28 28 27 26 25 24 22 20 18 17 18 17 14 11 10 10 10 10 9 9 9 8 7 7 6 6 6 5 5 5 4 5 6 6 7 5 3 2 1 2 3 4 4 4 4 4 5 7 8 6 5 6 8 11 11 11 13 15 18 20 21 19 16 15
3 4 6 7 7 5 5 7 8 8 7 7 5 6 7 6 9 15 18 22 27 25 18 17 16 15 16 18 23 27 29 30 30 30 29 28 26 25 24 23 22 21 21 20 17 15 13 11 10 9 9 9 10 9 9 8 7 6 6 5 4 5 4 4 5 5 6 6 4 3 2 1 1 2 3 4 4 4 3 4 6 7 6 5 6 8 9 10 11 13 15 16 18 20 19 18 17
5 4 4 7 9 8 8 8 10 10 10 10 7 7 8 8 9 10 20 35 36 31 27 25 23 20 17 17 21 26 28 29 29 28 27 26 24 22 21 21 21 22 22 21 19 17 14 12 11 10 9 10 10 10 9 8 8 7 6 5 4 4 4 5 5 5 6 5 5 4 2 1 1 2 3 3 3 4 3 3 4 6 6 5 5 7 8 9 10 11 13 13 15 17 18 18 18
5 5 4 4 7 9 11 11 12 12 12 12 9 10 13 15 12 11 29 43 37 33 32 30 29 27 23 20 20 22 25 27 28 28 27 26 24 22 21 20 21 23 23 21 19 17 14 13 12 11 10 10 11 11 10 9 8 7 6 5 5 5 4 6 6 5 6 5 5 4 2 1 1 2 3 4 3 4 3 3 3 5 6 5 5 6 8 8 9 11 12 12 13 14 16 16 18
5 6 5 4 7 9 10 11 14 13 12 10 8 11 15 13 9 15 35 37 25 23 24 25 28 30 29 26 24 23 24 25 27 28 28 26 25 25 23 22 23 23 22 21 19 17 15 15 14 12 11 11 12 12 10 9 8 8 6 6 6 5 6 7 7 6 6 6 6 4 3 1 1 2 3 4 4 4 3 2 3 4 5 5 5 5 7 8 9 11 12 13 12 12 14 14 16
3 4 6 8 11 12 9 11 14 11 11 10 8 9 12 8 1 11 27 17 8 13 13 16 21 27 30 30 30 28 27 27 26 25 27 28 28 28 25 24 25 23 21 21 19 17 16 16 15 13 12 13 13 12 11 10 9 8 7 7 6 6 7 8 7 7 7 7 7 5 3 1 0 2 3 4 4 4 3 3 3 3 4 4 4 4 6 8 9 9 10 12 12 11 11 12 14
4 4 7 10 12 13 11 11 13 9 7 9 9 9 12 6 3 18 31 20 14 17 16 15 18 22 25 27 30 31 32 31 27 26 28 30 30 29 27 26 25 23 22 21 18 17 17 16 15 14 14 14 14 13 12 10 9 8 8 8 7 7 8 8 8 8 7 7 7 5 4 2 1 1 2 3 4 4 3 3 3 3 3 3 3 3 4 6 7 7 8 9 11 10 9 10 11
4 3 5 8 8 9 11 11 12 9 3 5 4 7 10 5 12 31 35 24 20 20 20 19 19 21 21 23 26 29 31 31 29 30 31 31 30 29 28 26 24 23 22 20 19 19 18 17 16 16 16 15 14 13 12 10 10 9 8 8 8 8 9 9 9 9 8 8 7 5 4 2 1 1 2 3 4 4 4 3 4 4 3 2 2 2 3 4 4 3 5 6 7 8 8 9 9
4 2 1 5 7 6 8 5 7 8 3 4 4 4 9 6 18 30 23 18 19 20 23 22 20 21 20 21 23 25 28 30 31 30 30 30 30 30 29 27 25 24 22 21 21 20 19 18 17 17 17 16 14 13 13 11 10 10 9 9 9 9 9 10 10 9 9 9 7 6 5 3 1 1 2 3 3 4 4 4 4 4 3 2 1 2 2 2 2 1 2 4 5 5 6 8 8
2 2 1 2 2 5 6 1 8 6 2 6 7 3 10 8 16 22 15 14 16 18 22 21 20 20 20 20 22 24 25 27 29 28 29 29 29 30 29 28 26 24 23 23 22 20 20 19 18 19 18 16 15 15 13 11 11 10 10 9 10 10 10 11 11 9 9 9 8 7 5 4 2 1 2 2 3 3 4 4 4 5 4 2 1 1 1 2 2 2 2 2 4 5 5 7 8
1 1 4 2 2 5 7 1 9 5 1 6 7 2 9 10 17 19 11 8 9 14 19 19 20 20 19 21 21 23 24 24 27 28 29 29 29 31 30 29 27 25 24 24 22 21 21 20 19 20 19 17 16 15 13 12 12 11 10 10 11 11 11 11 11 10 10 10 9 7 6 5 3 2 2 2 3 3 4 4 3 4 4 3 1 1 1 1 2 2 2 3 4 5 5 7 8
3 2 4 2 3 4 7 2 5 3 1 4 5 3 7 7 10 8 2 4 8 13 21 23 24 24 23 24 24 25 25 25 27 28 29 29 30 31 30 28 27 25 23 23 24 23 23 21 21 21 19 18 17 15 14 13 13 12 11 12 12 12 12 12 12 11 11 11 9 8 7 6 4 3 2 2 3 2 2 4 4 3 4 3 2 0 2 1 1 2 2 3 4 5 6 7 8
4 1 3 4 3 3 4 3 2 2 1 4 4 4 10 12 12 15 16 18 18 19 28 31 30 30 30 29 29 30 29 29 30 29 28 28 28 29 29 27 26 26 23 23 24 24 23 21 21 21 20 19 18 16 15 14 13 13 13 14 14 13 13 13 12 12 12 11 10 9 8 6 5 4 3 3 3 2 2 2 3 3 3 3 3 2 1 2 0 2 2 4 5 6 7 8 9
2 2 2 3 3 2 4 4 1 3 2 4 4 6 14 16 17 25 30 26 23 26 33 34 33 34 33 32 34 34 34 34 33 31 27 26 26 26 27 26 26 27 25 24 25 25 24 22 21 21 20 20 19 18 16 15 15 15 16 16 15 15 15 14 13 13 13 11 11 10 8 7 6 5 4 3 3 3 2 1 2 3 3 2 3 2 2 1 0 1 2 4 6 7 8 9 10
4 5 4 2 4 4 5 5 3 4 2 6 7 9 13 16 17 21 24 21 21 28 32 32 32 33 33 33 35 37 37 37 34 31 28 27 25 25 26 26 27 28 26 25 25 26 25 23 22 22 22 21 21 20 19 18 18 18 18 17 17 16 15 14 14 14 13 12 11 10 9 8 7 6 5 4 3 3 3 2 1 1 2 2 2 2 2 2 1 0 1 4 7 8 9 10 12
2 2 2 3 4 6 5 4 4 1 2 7 8 9 12 15 17 19 24 20 17 23 25 28 31 32 32 32 34 36 36 36 32 31 30 28 26 25 25 26 27 29 28 27 27 27 26 25 24 23 23 23 23 23 21 20 19 19 18 17 17 16 15 15 15 15 14 13 12 11 10 9 7 6 5 5 4 3 4 3 2 1 2 2 1 0 2 3 3 1 0 2 6 9 10 11 13
2 2 3 4 3 6 6 3 4 2 0 5 6 8 13 15 15 18 21 16 15 19 19 23 30 30 30 30 31 32 31 31 30 30 30 28 28 27 26 27 29 30 30 29 28 27 26 26 25 23 23 23 24 23 22 20 18 17 15 14 15 16 15 15 15 16 15 14 13 12 11 10 8 7 6 6 5 4 4 4 2 2 2 2 2 2 1 2 4 3 1 1 3 8 10 11 13
2 2 1 4 3 5 5 3 4 2 1 5 7 9 14 16 15 16 17 14 17 22 20 23 27 28 29 27 27 28 26 26 27 28 28 28 29 28 28 28 29 31 31 30 29 28 27 27 26 24 23 23 23 23 22 19 17 16 15 14 14 15 15 15 16 17 16 15 15 13 12 10 9 8 7 7 6 5 5 5 3 2 3 3 3 4 3 2 3 4 3 2 3 6 9 11 12
2 3 2 4 3 2 4 4 6 3 2 5 8 9 12 13 10 11 14 13 15 19 18 20 23 25 26 24 24 25 24 24 25 26 27 28 30 30 30 29 29 30 31 31 30 29 29 28 26 25 24 24 23 23 22 19 17 17 18 17 17 17 16 17 19 19 18 17 16 14 13 11 10 8 8 7 6 6 5 5 4 2 3 4 4 4 4 3 3 3 4 4 4 5 8 11 12
3 4 5 5 3 3 4 4 6 5 2 3 5 8 8 6 5 7 10 8 10 13 13 17 19 19 20 20 20 20 21 23 24 25 27 28 31 32 31 29 29 30 31 31 30 29 29 28 27 25 24 24 24 23 22 20 20 21 21 22 21 20 19 20 21 21 19 18 16 15 13 12 10 9 9 8 7 6 6 6 5 3 3 3 4 4 4 4 4 4 4 5 6 5 6 9 12
5 4 7 6 4 3 3 5 6 5 4 3 4 5 6 5 4 7 8 7 9 10 8 15 16 12 14 16 16 17 18 20 22 24 26 28 30 32 31 30 30 31 30 29 29 28 28 28 27 25 25 25 24 24 23 23 23 24 24 24 23 22 22 22 22 20 18 17 16 15 13 12 11 10 9 8 8 7 7 7 6 5 4 4 4 4 4 4 4 5 5 5 6 7 7 7 10
3 3 4 5 5 3 1 4 4 1 4 3 3 2 6 8 6 7 7 8 11 10 7 10 10 7 11 14 15 16 16 17 19 21 24 27 30 31 32 32 31 31 28 27 28 28 28 28 27 26 25 25 25 25 25 25 25 25 24 23 22 21 20 19 18 17 16 16 16 16 14 13 11 11 10 9 9 8 8 8 8 7 6 5 5 4 4 4 4 5 5 6 6 7 9 8 8
2 3 5 5 4 3 2 3 1 3 4 4 2 3 3 8 6 6 6 9 12 10 7 8 6 6 9 13 15 16 16 16 17 19 22 26 29 31 31 31 30 29 27 28 28 28 28 29 27 26 25 25 26 26 27 27 26 25 24 23 21 20 17 15 15 16 17 17 17 17 15 14 12 12 11 11 10 10 10 10 10 9 7 7 6 5 5 5 6 5 6 7 7 7 9 10 9
3 4 5 4 4 4 4 4 1 2 3 5 3 3 2 7 8 5 5 7 9 8 7 7 6 10 16 14 13 14 15 15 15 17 20 23 27 29 29 29 28 28 28 28 27 26 27 28 28 27 27 26 27 28 28 28 26 24 23 23 22 20 17 16 16 17 18 18 17 17 16 14 13 13 12 12 12 12 11 12 11 10 9 8 7 7 7 7 7 6 6 7 8 8 8 9 9
2 4 4 4 4 3 3 4 2 2 3 4 5 4 2 5 8 6 3 3 6 7 7 7 8 14 18 13 12 11 12 14 15 16 18 21 24 26 27 28 28 28 28 27 27 26 28 29 29 28 28 27 27 28 29 27 26 25 25 24 23 20 18 18 18 19 19 18 18 17 16 15 15 14 14 14 14 13 13 14 13 12 11 10 10 9 9 8 8 7 7 7 7 7 8 8 8
3 4 4 4 4 4 3 2 3 3 2 6 6 4 2 2 7 6 3 4 5 4 6 7 11 17 17 12 11 10 10 11 13 15 17 19 22 25 27 28 28 28 28 29 28 28 29 30 30 29 29 28 28 29 29 28 27 26 26 25 23 21 20 20 20 20 19 19 19 18 17 17 17 16 16 16 16 15 15 15 15 14 13 12 11 11 10 10 9 9 8 7 7 7 7 8 8
3 3 2 3 4 3 3 4 3 2 4 6 4 3 3 2 6 6 5 6 5 4 6 9 10 15 15 11 12 11 9 10 11 13 15 17 20 24 26 28 29 29 30 30 30 29 30 30 30 30 29 29 29 29 29 28 28 27 27 26 24 22 22 22 21 20 19 20 20 19 19 19 19 19 19 18 18 17 17 17 17 15 14 13 13 12 11 11 11 10 9 9 8 8 8 8 8
4 3 3 3 3 3 3 3 1 2 5 4 1 1 2 5 9 11 12 13 10 8 10 12 12 16 15 12 12 11 10 11 11 11 13 15 19 22 25 27 28 29 30 30 30 30 31 31 31 31 30 29 29 29 29 29 29 29 28 27 26 25 24 23 22 21 21 21 21 22 21 21 21 21 21 20 20 19 19 19 18 16 15 15 14 14 13 13 12 11 11 10 10 10 10 10 10
3 4 4 3 2 2 2 4 2 3 4 3 2 1 2 5 7 11 14 15 13 11 12 16 17 17 15 14 12 11 11 12 12 12 12 13 15 18 21 24 26 28 29 30 30 31 32 32 32 32 31 29 29 30 30 30 30 29 29 28 27 27 26 25 24 23 22 22 23 24 23 22 22 22 21 21 20 20 20 20 19 18 17 16 16 15 14 14 13 13 12 12 12 12 12 12 11
3 4 5 4 4 4 4 4 3 4 3 3 3 1 3 4 4 8 10 12 16 17 19 19 16 15 14 15 14 11 11 12 12 12 12 11 12 14 18 21 23 25 26 28 29 31 33 34 33 33 31 30 30 30 31 31 31 30 30 30 29 28 27 26 26 25 24 24 24 25 24 23 23 22 22 22 22 21 22 22 21 20 19 18 17 16 16 15 15 14 14 14 14 14 14 13 13
2 2 4 2 4 4 2 3 4 3 2 3 2 3 5 4 8 13 9 9 13 15 16 15 15 15 14 15 15 11 11 11 12 13 12 10 10 12 15 18 21 23 24 26 28 30 33 34 34 33 32 31 30 30 31 31 31 31 31 31 30 29 29 28 27 26 26 25 26 26 25 24 24 24 24 24 24 23 24 24 23 22 21 20 19 18 17 17 16 16 16 15 15 15 15 14 14
1 2 2 4 4 4 2 2 1 3 0 4 1 3 5 4 8 12 7 7 8 8 7 8 14 15 13 15 14 11 11 10 12 13 12 11 11 11 14 16 19 22 24 25 26 28 31 33 34 34 32 32 32 31 31 31 31 32 32 32 31 31 30 29 28 28 27 27 27 28 27 26 26 26 26 26 26 26 26 26 25 23 22 21 20 19 19 18 18 17 17 17 16 16 16 15 15
3 2 4 3 1 4 3 1 4 3 2 4 2 4 5 3 5 7 8 8 9 9 6 7 10 12 14 16 13 10 10 10 11 13 13 13 12 12 13 15 18 21 23 24 25 27 29 31 33 34 34 33 33 32 31 31 32 33 33 33 32 31 30 30 29 28 28 28 29 30 30 29 29 28 29 28 28 28 28 28 27 25 24 23 22 21 21 20 19 19 19 18 18 17 17 16 16
2 2 2 1 2 1 1 1 1 1 3 4 4 4 4 4 5 6 9 8 9 11 9 8 9 9 14 15 12 10 11 10 12 13 13 13 12 12 13 15 18 20 23 25 26 27 29 30 32 34 34 34 33 33 32 33 33 34 34 33 32 32 31 30 30 30 30 31 32 32 32 32 31 30 31 31 31 30 30 30 29 28 26 25 25 24 23 22 21 21 20 20 20 19 18 18 17
1 2 3 1 3 3 2 2 3 2 2 3 5 5 3 6 6 5 11 11 8 10 9 8 9 10 13 14 12 11 11 11 12 12 13 12 11 11 12 14 17 19 22 24 26 28 29 30 32 33 35 36 36 35 35 35 34 34 34 34 34 33 32 32 32 32 32 33 33 34 34 33 33 32 32 32 33 33 32 32 31 30 29 28 27 27 25 25 24 23 22 22 21 20 20 19 19
2 1 2 1 1 2 1 2 2 4 2 2 3 5 5 6 5 7 13 13 9 9 8 8 10 12 13 13 11 11 11 12 12 11 12 12 10 11 12 14 16 18 21 25 27 29 30 31 32 33 35 37 37 38 37 36 36 35 35 35 35 34 34 34 33 33 34 34 35 36 35 35 35 34 34 34 35 35 34 34 33 32 31 30 30 29 28 27 26 25 25 24 24 23 22 22 21
5 5 4 4 4 3 1 4 2 2 3 4 3 6 7 5 4 8 12 11 8 8 8 8 12 15 14 12 10 11 12 12 11 11 13 13 12 11 12 14 16 17 20 24 27 30 31 33 33 34 36 37 38 38 38 38 37 37 37 36 36 36 35 35 35 35 35 35 36 37 37 37 37 36 36 36 36 36 36 35 35 34 33 33 32 31 31 30 29 28 28 27 26 26 25 25 24
Wind_Direction
243 250 261 260 297 290 308 357 29 333 79 210 276 225 252 236 179 139 129 162 164 224 188 158 152 154 151 165 193 190 184 173 170 149 180 191 159 168 209 241 243 238 233 215 220 250 248 248 247 245 248 250 252 253 252 250 246 247 250 262 280 305 322 332 334 339 335 332 329 329 332 334 334 336 338 338 338 339 337 335 334 333 335 335 334 333 330 329 328 330 331 326 320 317 316 314 306
237 242 250 252 302 288 299 40 75 324 45 333 282 197 252 324 97 168 187 201 220 186 164 152 153 165 176 167 158 121 219 211 205 182 179 183 188 214 231 229 226 234 245 227 213 242 248 241 242 245 247 248 250 250 250 247 245 249 254 270 290 312 328 334 337 340 338 333 329 331 332 333 336 338 341 340 340 339 337 336 336 336 338 338 337 333 333 336 334 333 331 325 321 319 315 314 310
231 231 239 244 284 303 19 55 96 53 72 269 271 254 248 46 213 209 211 228 212 161 164 162 158 176 162 142 187 182 227 219 213 211 223 221 224 237 221 205 206 240 266 266 215 230 241 233 238 241 244 246 246 248 248 247 247 254 261 276 295 318 329 334 338 338 337 333 329 330 331 335 338 341 343 342 341 340 338 338 339 340 341 339 339 337 340 339 334 334 328 323 319 316 313 311 309
227 226 232 242 278 338 55 68 149 129 150 229 261 278 238 183 211 226 219 203 168 161 172 166 163 196 175 192 209 212 240 222 216 217 233 237 228 228 217 207 223 262 271 269 228 226 237 230 233 236 242 244 244 247 247 249 250 257 267 280 300 318 325 332 335 335 335 331 329 329 331 337 341 344 346 343 342 341 339 340 342 343 342 340 342 344 348 347 342 336 326 318 312 309 311 310 308
224 220 215 240 331 7 75 81 121 130 206 194 216 273 242 203 194 202 187 167 170 180 195 176 175 197 196 229 198 219 238 217 221 219 227 237 220 218 221 226 245 272 267 259 221 219 231 228 231 236 241 243 244 247 247 250 252 261 272 285 304 315 320 327 330 333 333 329 328 328 332 338 343 347 346 344 344 342 340 343 345 344 343 342 347 352 355 351 342 331 323 317 311 309 314 316 313
216 209 204 224 29 53 99 249 237 223 235 174 194 258 232 214 186 177 175 171 188 208 221 207 208 191 215 239 212 232 235 215 230 222 228 243 243 230 227 240 253 269 268 262 234 224 226 228 231 237 241 242 245 246 248 251 253 264 276 290 304 311 315 320 327 332 330 329 326 328 334 339 345 348 347 345 344 343 342 346 347 345 344 345 353 2 358 346 334 329 329 332 331 330 331 329 325
208 200 199 160 36 25 114 211 227 237 245 175 189 230 209 208 185 167 167 179 207 222 223 218 205 165 227 236 223 235 230 227 234 234 236 243 255 244 241 256 265 267 268 265 253 239 232 232 233 236 238 239 246 248 251 253 258 266 278 294 301 305 307 313 325 327 327 327 325 330 336 341 347 348 346 347 347 344 344 348 348 347 348 350 360 5 356 341 334 336 344 350 352 350 345 339 334
199 186 155 116 39 13 117 234 241 215 243 212 210 215 199 193 178 165 175 184 196 210 210 213 198 172 248 217 217 229 224 232 235 245 248 252 262 260 266 269 276 270 266 261 249 245 236 232 230 234 235 240 247 250 255 256 262 269 281 293 295 298 298 309 320 322 324 324 325 331 336 343 347 347 346 349 349 345 347 351 350 349 351 354 3 3 353 342 340 347 355 357 354 351 349 344 339
188 175 129 105 156 340 313 283 269 228 254 256 251 224 198 186 178 171 180 201 204 199 209 205 189 191 272 218 226 232 223 232 235 243 250 257 264 263 270 269 273 265 263 261 243 241 230 227 228 232 236 243 250 252 257 260 265 272 283 289 288 291 289 304 312 314 320 321 324 331 338 343 345 346 348 352 350 346 351 354 351 350 354 358 4 3 353 346 346 354 359 357 354 350 349 347 345
176 173 157 86 153 303 299 283 271 256 261 257 256 218 190 183 183 184 177 212 220 196 210 201 196 221 272 232 233 239 229 233 232 239 248 254 262 262 267 267 265 258 260 254 237 235 227 230 230 234 239 243 251 253 257 261 269 276 282 282 278 284 284 297 302 306 312 317 321 329 340 341 346 349 350 354 348 347 356 356 352 352 356 359 3 3 356 351 351 356 358 357 353 349 350 350 348
160 166 147 80 134 242 250 255 267 266 278 288 287 211 191 185 184 198 184 214 215 190 188 183 209 231 239 269 239 239 233 232 234 239 247 250 260 262 263 264 259 255 255 243 229 230 229 233 232 235 238 242 250 252 257 262 271 276 279 275 269 275 276 286 290 296 304 311 316 328 341 344 349 348 350 355 348 352 1 359 354 353 357 2 5 4 2 358 355 354 357 360 354 350 353 353 350
162 100 110 98 184 213 213 229 264 275 305 311 267 202 191 188 182 205 202 218 202 190 196 187 209 219 206 283 244 241 239 233 233 234 238 246 262 261 257 257 254 252 249 239 229 229 230 233 234 237 238 242 247 249 256 262 271 276 277 272 262 264 266 275 281 288 296 304 309 325 341 346 348 343 350 357 352 357 5 2 356 356 359 5 10 8 10 4 358 356 358 2 356 352 355 359 358
177 129 108 141 196 191 196 219 267 294 316 272 221 199 189 198 206 218 206 218 192 179 218 208 212 201 212 275 251 242 240 235 228 225 232 244 256 254 253 252 249 249 245 239 234 233 231 232 235 237 237 240 244 248 256 263 270 273 274 269 258 255 258 267 273 283 291 297 304 324 340 345 344 341 354 359 357 1 9 6 357 359 3 11 20 15 16 11 1 358 1 7 3 359 2 11 9
177 142 129 196 236 181 201 238 270 262 278 255 225 201 200 215 228 232 203 214 208 196 225 217 207 210 238 254 255 247 239 231 223 221 228 236 246 247 249 248 246 246 242 239 237 238 232 232 234 236 238 237 241 247 255 265 269 270 273 268 258 252 253 262 269 278 286 291 302 321 334 342 344 345 359 1 360 5 13 9 358 3 10 21 29 24 19 16 9 2 4 11 12 10 13 23 18
181 144 119 153 311 303 225 225 242 203 249 252 218 216 220 231 231 248 227 224 235 219 227 217 197 202 240 215 240 263 248 229 220 218 223 229 237 238 241 241 242 241 240 240 239 242 237 234 234 234 238 236 239 243 253 265 269 270 271 267 260 253 252 259 267 275 280 287 299 313 325 343 349 352 2 2 2 8 16 12 1 8 16 27 31 26 19 20 20 10 6 11 14 15 15 21 19
185 167 86 92 248 254 231 215 230 192 256 253 209 233 245 244 231 247 245 234 253 230 227 220 200 209 237 224 246 286 259 230 221 218 221 226 229 229 234 235 236 236 236 239 240 245 243 240 236 234 238 236 236 239 254 265 269 269 268 267 261 255 254 258 266 272 275 282 291 299 315 348 355 357 1 1 5 9 18 17 8 10 18 26 29 25 18 20 27 19 11 9 11 13 13 16 20
181 180 87 260 211 206 213 204 201 187 260 271 229 228 225 259 242 241 253 245 248 239 231 227 216 224 238 243 255 272 259 234 224 218 218 222 223 224 229 232 234 234 236 240 241 245 246 244 239 235 235 235 236 236 249 260 264 266 268 269 263 259 254 256 264 268 270 276 281 288 312 354 2 358 358 2 9 11 18 21 15 14 18 23 27 24 16 20 28 26 20 14 11 13 17 21 25
177 150 168 227 195 199 199 190 199 165 243 263 233 218 203 255 262 243 260 252 246 247 242 234 231 232 237 247 253 259 258 238 228 223 221 222 222 225 229 235 239 240 239 239 240 244 246 245 241 238 234 234 236 237 243 250 257 262 270 273 272 273 262 257 261 264 266 269 274 280 309 358 6 359 355 2 14 13 17 25 24 23 20 23 31 24 19 26 30 31 30 23 16 16 17 22 32
186 133 177 226 201 210 207 186 199 166 236 246 241 226 211 243 263 239 252 255 246 249 249 240 238 238 236 242 247 251 250 239 232 228 228 229 230 233 234 239 244 245 244 242 245 248 246 243 241 241 237 235 238 242 245 248 255 262 272 280 279 272 259 253 253 256 259 263 268 273 307 357 5 1 356 1 19 16 16 29 30 32 28 28 40 28 23 35 37 37 38 29 20 20 22 28 40
207 176 208 243 216 229 235 205 212 214 240 250 250 235 224 245 251 227 236 266 262 240 243 236 236 241 236 236 242 245 244 239 236 234 235 237 239 241 241 245 251 255 256 253 249 246 244 240 240 243 243 242 243 246 251 253 257 264 273 273 265 252 239 237 239 241 248 254 258 265 302 355 359 360 358 1 25 20 17 32 33 35 39 38 45 32 30 44 47 45 45 36 26 24 34 43 44
205 180 206 238 197 232 242 218 225 231 233 242 242 234 248 253 242 232 234 280 271 242 245 243 243 251 246 237 238 240 240 238 236 236 238 240 242 243 244 249 255 259 257 251 246 243 243 236 233 242 250 251 249 251 253 257 259 261 264 255 245 236 225 222 227 228 237 244 244 259 288 345 350 358 360 359 29 31 20 32 36 37 47 48 47 39 36 48 52 49 52 47 35 27 34 50 49
202 208 226 230 179 224 252 227 231 237 233 243 237 219 254 252 239 240 225 223 252 251 259 259 254 261 259 246 240 239 238 238 237 238 240 242 244 245 247 249 251 250 247 246 247 247 244 233 229 239 251 255 253 254 251 254 256 255 255 249 243 229 217 217 223 222 229 234 235 253 271 325 345 356 360 354 25 41 25 31 40 38 49 52 47 45 41 47 50 48 55 53 45 37 33 42 49
226 253 247 239 216 222 255 239 239 243 234 240 240 238 254 255 261 254 231 235 254 262 268 269 265 266 266 253 241 238 238 238 239 241 244 245 246 249 250 250 250 250 249 250 249 247 247 242 238 238 247 253 254 254 252 254 255 254 253 249 248 233 217 221 221 218 225 227 231 241 248 296 351 358 356 347 18 49 35 30 44 42 47 50 46 48 42 45 50 52 54 55 53 48 39 33 40
214 255 267 245 234 234 255 257 253 252 246 254 257 258 260 247 269 275 250 253 262 268 266 264 264 264 264 251 238 238 241 242 244 247 249 250 252 254 255 255 255 251 248 247 245 246 249 250 247 242 242 247 251 253 253 253 254 255 254 254 254 241 226 227 221 219 222 221 227 229 224 240 359 3 349 341 13 50 45 30 45 47 46 45 47 52 47 48 54 53 51 56 58 53 46 36 39
207 236 263 246 244 251 261 262 257 258 260 266 263 260 261 258 272 281 267 269 273 274 269 262 258 257 256 249 241 240 243 245 247 248 248 249 250 249 250 251 249 246 244 242 241 244 248 249 249 244 241 244 247 251 252 252 254 254 253 254 251 240 230 227 220 219 219 218 224 221 214 217 21 360 341 337 10 43 48 37 42 52 52 45 47 55 58 57 58 57 51 52 55 56 55 47 46
218 226 256 259 259 266 266 257 258 262 263 266 260 263 267 270 284 274 270 275 282 278 270 261 253 248 247 245 243 242 244 245 245 245 246 247 245 243 243 242 242 242 242 240 238 241 245 247 247 243 239 240 242 246 249 250 252 252 250 248 242 235 229 222 217 219 216 217 220 214 213 207 11 340 331 336 8 35 39 49 44 52 57 50 51 60 69 73 69 65 59 51 47 55 59 55 55
256 249 272 270 266 272 267 255 260 261 262 255 240 266 273 269 305 267 269 275 283 277 273 263 249 243 244 243 243 244 246 248 248 248 246 244 241 240 240 239 241 241 241 239 235 236 240 244 246 240 232 232 236 241 244 246 247 245 242 240 235 227 225 218 216 218 215 219 216 206 210 197 278 319 330 333 3 24 25 51 57 53 55 53 56 67 80 86 81 69 58 47 41 49 59 58 59
294 307 289 278 278 279 259 248 253 241 262 252 230 269 276 256 180 249 260 265 273 279 280 268 252 248 247 244 245 245 248 250 251 251 248 245 243 242 242 241 242 241 241 241 235 232 235 240 241 236 228 227 231 235 239 241 239 235 234 234 228 223 222 216 216 216 214 220 213 201 208 201 214 308 327 332 355 8 8 44 64 60 54 49 56 68 88 95 90 70 48 36 35 43 60 65 63
297 322 294 290 315 297 250 240 237 211 233 248 209 286 274 210 221 248 260 269 278 280 276 268 257 256 254 249 248 246 249 251 250 251 251 251 249 246 247 247 247 246 245 241 232 229 233 237 236 232 228 226 226 229 236 237 232 227 226 226 220 220 219 215 216 213 214 217 211 202 206 209 220 292 323 333 346 351 356 33 62 72 60 35 45 60 81 95 95 70 31 29 41 43 56 71 74
297 303 239 298 338 313 259 237 199 183 204 204 150 285 270 229 238 250 266 282 284 280 273 269 260 257 257 254 251 249 249 249 249 252 254 254 251 248 248 248 247 248 246 236 228 226 229 233 231 229 227 226 223 225 230 230 227 223 221 218 214 217 216 217 215 210 215 215 209 205 205 210 220 276 316 332 338 343 348 15 52 73 72 30 10 39 65 88 89 76 29 41 68 62 58 72 78
311 293 260 310 310 283 293 134 150 158 216 185 144 249 266 269 264 267 281 286 283 275 271 272 266 262 259 256 254 252 251 248 250 253 255 256 253 250 248 247 246 246 241 232 227 224 226 231 229 227 226 223 222 224 227 225 224 221 217 214 211 214 216 217 214 209 214 214 210 207 204 207 209 254 301 328 332 339 346 359 37 65 77 67 353 348 46 93 92 85 81 86 98 94 74 80 84
17 272 292 325 194 263 305 189 160 160 194 174 149 246 270 277 281 285 293 295 284 268 274 278 270 268 264 261 257 256 256 253 253 253 254 254 254 252 249 247 245 243 238 231 226 222 225 229 228 227 225 221 222 225 226 222 219 218 215 212 211 214 215 216 213 209 213 214 212 207 203 203 199 226 275 308 320 335 345 346 14 51 72 86 69 314 316 71 106 101 101 114 113 112 99 92 92
345 202 256 269 194 274 319 282 192 189 128 191 196 247 278 278 281 285 301 326 305 275 277 276 271 270 266 264 262 260 260 257 255 254 253 252 251 251 249 247 244 242 238 231 226 222 223 226 225 225 224 221 223 225 225 221 218 217 214 212 213 213 214 216 213 211 213 212 212 208 203 200 196 212 245 282 305 327 342 337 350 28 59 82 103 95 293 307 99 117 128 131 126 123 115 107 104
307 265 246 250 216 257 306 308 253 207 164 232 231 236 259 266 275 275 275 289 293 279 275 273 271 269 265 264 262 260 260 258 259 259 257 253 250 247 242 241 241 240 238 232 227 223 224 225 225 224 221 220 222 224 225 221 218 216 213 213 214 214 214 215 213 212 213 211 209 208 204 200 200 210 227 258 283 305 324 328 336 359 37 70 98 118 208 255 37 111 144 141 133 127 123 121 113
224 217 227 281 294 259 258 285 256 165 199 253 247 254 259 266 275 274 275 280 278 271 272 273 272 270 267 264 261 260 258 257 260 262 260 256 251 245 237 234 235 236 235 231 226 223 223 224 224 222 219 218 219 222 222 219 217 216 214 214 214 213 213 214 214 216 214 210 208 206 206 202 203 213 224 240 259 282 296 308 336 345 357 44 88 119 151 188 224 87 135 139 137 134 133 130 122
167 185 178 243 286 280 253 265 252 171 223 257 238 250 263 272 278 277 279 278 266 265 270 272 273 272 270 266 263 261 258 258 262 263 260 255 251 246 238 233 232 232 232 229 223 219 219 218 219 218 217 217 218 221 220 217 217 216 215 216 217 215 213 212 214 217 216 210 207 205 206 205 205 215 228 239 247 263 284 295 321 341 327 353 49 107 137 147 151 55 120 134 139 145 144 136 133
166 196 226 251 253 281 273 271 291 169 223 256 240 252 266 272 275 277 282 280 261 259 265 269 270 271 269 267 267 265 261 263 264 261 257 251 247 244 240 235 232 229 228 226 221 217 215 213 215 217 216 216 219 222 222 221 221 220 221 221 221 219 214 213 214 219 218 211 208 206 207 209 209 216 230 242 249 254 270 285 274 249 288 308 335 328 140 143 145 148 237 130 141 157 157 147 145
222 240 274 284 240 264 267 249 298 346 196 271 277 284 276 271 272 277 281 278 262 256 255 262 268 271 272 269 269 270 269 269 265 258 254 247 240 238 237 235 232 229 227 225 220 216 215 214 216 219 218 219 222 225 226 228 228 229 231 231 229 224 216 213 215 220 219 212 209 208 209 212 213 218 229 242 250 252 261 271 260 220 237 257 264 263 218 155 149 150 193 211 158 168 169 161 159
196 197 262 286 257 278 287 287 317 354 171 281 311 308 284 276 273 273 273 264 264 265 256 260 267 271 274 274 273 275 274 270 264 257 251 243 236 233 233 232 231 231 230 228 223 218 218 217 218 220 221 224 227 228 229 230 231 230 230 231 231 228 219 213 214 218 219 214 211 211 213 215 216 221 229 240 248 252 261 265 258 216 222 248 250 252 253 203 167 154 167 211 202 187 181 175 173
201 175 185 268 275 306 284 296 321 309 225 278 306 299 283 283 283 277 274 261 265 274 268 266 267 268 274 279 278 278 276 271 264 257 248 238 231 229 229 228 228 228 229 228 225 221 221 220 220 221 223 227 228 229 230 229 227 226 224 223 225 224 219 215 216 218 218 214 212 212 216 218 218 223 227 237 245 248 257 260 258 228 214 243 254 253 257 248 225 186 173 189 214 211 196 188 184
271 199 192 238 250 219 233 284 321 319 317 321 319 304 285 299 325 298 293 289 278 283 285 281 274 267 271 278 280 279 278 273 265 256 246 235 229 228 229 227 225 226 227 228 226 224 223 221 221 222 225 228 228 229 229 226 222 221 220 220 220 217 213 213 214 217 217 214 214 214 218 220 219 222 227 233 240 243 250 252 248 236 216 227 247 253 252 251 244 228 207 195 204 217 217 208 196
304 238 198 195 188 203 275 327 346 2 345 334 14 343 291 300 318 283 296 326 303 295 294 288 288 277 268 275 283 283 281 276 266 257 248 238 232 229 227 225 224 226 228 230 229 227 227 224 222 223 227 229 229 228 227 226 224 223 224 224 222 218 215 216 217 218 219 216 217 218 220 222 220 222 226 230 236 237 241 244 239 230 222 218 228 242 242 244 240 232 229 214 207 207 217 227 210
300 255 175 157 148 140 16 9 15 2 277 287 66 81 270 295 296 264 287 315 304 306 301 289 298 290 268 274 280 280 280 276 267 256 245 238 233 229 227 226 225 227 229 230 230 229 228 226 224 225 228 229 228 227 225 227 227 228 230 231 231 229 225 224 221 219 219 218 218 219 222 223 221 223 226 228 232 233 232 235 234 226 223 219 216 223 227 233 231 220 221 224 220 209 207 217 218
239 232 135 125 127 148 149 92 94 233 272 311 26 128 251 294 278 257 299 311 310 318 311 304 332 343 307 289 277 273 274 274 269 258 245 235 232 231 230 230 229 229 229 228 229 229 228 225 224 226 230 230 229 227 226 228 230 231 231 231 232 232 230 227 222 219 220 220 221 221 222 223 222 223 225 228 229 229 229 230 230 226 222 221 217 215 217 222 225 214 208 213 219 217 211 209 211
235 199 131 122 126 143 136 112 172 281 343 315 286 143 209 279 274 290 322 307 306 306 289 289 309 333 329 310 283 274 270 269 266 259 250 241 236 235 235 235 234 231 229 229 230 230 229 225 224 226 229 230 228 227 228 230 232 233 231 230 228 227 226 225 225 224 222 222 224 223 223 223 223 223 224 228 229 227 227 228 227 225 222 222 218 216 217 220 226 221 212 211 213 216 218 213 207
194 142 98 62 70 85 87 104 133 22 357 257 228 181 193 275 280 299 327 277 272 276 277 272 280 312 325 312 285 273 268 269 267 261 253 247 243 239 237 236 235 233 230 230 231 230 229 226 224 226 227 228 228 228 229 231 231 231 229 228 228 227 227 229 230 229 226 223 225 226 226 225 224 223 224 227 228 227 226 227 226 223 221 221 219 216 216 219 223 224 221 219 219 217 219 221 215
129 110 72 35 32 43 53 61 89 66 302 257 233 203 163 289 279 269 240 230 228 242 286 289 293 309 316 309 292 273 262 270 273 268 257 246 242 238 236 236 234 233 231 229 229 229 228 226 225 226 227 228 228 229 230 230 231 230 229 227 228 229 231 234 236 236 234 229 228 228 228 228 225 223 224 226 227 227 226 226 226 222 220 220 219 217 215 217 219 220 221 221 223 224 222 224 223
100 101 77 32 351 11 28 356 41 98 253 265 252 201 151 224 265 259 248 257 235 216 272 285 289 296 299 304 301 282 265 269 270 270 263 248 239 234 233 234 234 232 230 229 229 228 227 226 225 226 227 227 228 229 229 229 229 229 229 228 229 231 234 238 242 243 242 236 235 235 231 229 226 223 224 225 226 226 225 226 225 222 220 220 219 217 214 216 216 215 217 217 218 222 223 226 227
79 98 79 53 341 357 351 306 330 204 244 272 285 158 180 235 258 265 268 272 261 231 242 257 264 274 286 301 298 280 266 266 267 270 267 255 245 238 234 233 233 231 231 231 231 230 227 226 226 227 228 228 228 228 228 228 229 228 228 228 230 232 236 241 244 246 244 239 236 237 235 232 230 226 226 227 227 226 226 226 225 222 221 221 220 218 216 216 216 213 212 213 215 218 219 221 224
135 152 122 119 117 67 286 273 282 260 257 275 280 268 266 270 264 251 251 262 268 261 259 264 264 264 279 296 293 276 264 262 265 265 264 261 254 246 240 236 235 234 233 233 233 231 229 228 228 228 228 228 228 228 228 228 229 229 228 229 231 234 238 242 245 246 244 239 235 235 237 234 233 231 229 229 229 228 227 227 227 224 222 222 221 219 217 216 215 214 212 211 213 215 216 216 219
179 175 131 139 153 154 228 241 223 249 281 295 293 282 211 221 265 249 236 255 272 276 276 275 268 261 273 287 284 274 266 262 262 259 258 261 259 253 247 242 240 238 236 235 234 232 231 230 230 229 228 228 228 228 227 228 229 229 229 230 232 235 240 244 247 248 247 243 237 235 236 234 232 231 230 231 230 230 229 228 228 225 223 223 222 220 219 218 216 214 213 212 212 213 213 213 215
206 150 109 169 187 152 186 204 189 199 310 295 263 245 220 215 283 284 275 276 277 276 274 266 259 261 270 276 276 275 268 260 258 256 254 255 256 254 251 246 244 242 239 237 235 232 232 231 231 231 230 229 229 229 229 229 229 230 230 231 233 236 240 243 245 247 247 244 240 238 238 236 233 231 229 230 230 230 230 229 229 227 224 224 224 222 221 219 218 217 215 214 214 212 212 213 214
170 126 172 227 185 116 117 246 326 71 235 273 237 254 284 317 293 290 316 328 306 302 293 264 257 261 264 267 272 271 261 255 255 256 254 253 255 255 255 252 248 245 242 240 238 236 235 234 234 234 232 231 230 230 230 230 230 231 232 233 235 238 240 243 245 247 248 247 243 240 239 237 234 232 230 229 229 229 229 229 229 228 227 226 225 223 223 222 219 219 219 217 217 214 213 215 215
118 172 227 239 132 79 89 234 341 28 234 275 278 241 278 317 285 302 338 330 304 301 306 298 280 261 253 262 268 263 254 250 251 252 251 249 250 255 259 258 254 251 248 246 244 242 239 238 238 236 235 233 233 232 232 232 232 233 235 235 237 239 242 245 247 248 249 248 245 241 239 237 234 232 231 230 230 229 229 230 230 230 228 228 227 226 225 224 222 221 221 220 219 218 216 217 218
135 193 232 123 142 134 78 150 237 291 265 282 295 278 257 232 241 289 297 278 276 287 296 310 296 253 245 258 264 256 247 242 242 243 243 242 246 255 260 262 260 255 253 250 247 244 242 241 241 239 238 237 236 236 235 234 234 235 237 239 240 243 245 247 249 249 249 248 246 243 241 239 236 234 233 232 231 231 231 231 231 231 230 229 229 228 227 226 225 224 224 224 223 221 220 220 221
55 339 328 359 169 176 160 162 169 189 253 280 306 315 257 228 221 236 264 261 252 269 282 290 281 263 257 262 261 256 249 245 246 242 240 242 246 257 263 266 265 261 258 254 249 247 244 243 242 240 239 238 237 237 236 237 237 237 239 240 242 244 247 249 250 251 251 250 248 245 243 241 239 237 235 234 233 233 232 232 233 232 232 230 230 229 229 228 227 227 227 227 227 225 224 224 224
129 221 273 256 194 164 187 243 144 139 189 221 278 288 257 242 229 219 251 263 243 240 258 266 271 276 278 272 264 263 260 254 251 246 243 244 248 257 264 265 265 262 259 255 251 249 246 244 243 241 240 239 238 237 237 238 238 239 241 242 244 246 248 250 252 252 253 251 249 246 244 241 240 239 237 236 235 234 234 234 234 234 234 233 232 232 231 230 229 229 228 228 229 228 227 227 227
158 185 207 187 171 134 134 269 281 119 179 182 197 269 263 246 230 223 243 259 249 236 241 255 272 279 282 283 282 281 275 268 267 266 257 248 247 257 264 264 263 261 259 256 251 249 247 246 244 243 242 241 240 239 239 240 240 241 242 244 246 248 250 252 253 254 254 252 249 246 244 242 240 239 239 238 237 236 235 234 234 235 235 235 235 234 233 233 232 231 230 230 230 229 229 229 229